| time (UTC) | temp F | wind direction | speed MPH | gust MPH | rain 1hr in | rain 24hr in | rain mn in | humidity % | barometer mb |
| 20260508175121 | 59 | 193 | 8.0 | 13.0 | 0.00 | 0.00 | 0.00 | 65 | 1009.3 |
| 20260508174618 | 58 | 195 | 8.0 | 10.0 | 0.00 | 0.00 | 0.00 | 67 | 1009.4 |
| 20260508174115 | 58 | 216 | 7.0 | 11.0 | 0.00 | 0.00 | 0.00 | 67 | 1009.6 |
| 20260508173612 | 58 | 229 | 8.0 | 10.0 | 0.00 | 0.00 | 0.00 | 67 | 1009.6 |
| 20260508173108 | 58 | 237 | 8.0 | 13.0 | 0.00 | 0.00 | 0.00 | 63 | 1009.5 |
| 20260508172606 | 57 | 219 | 9.0 | 11.0 | 0.00 | 0.00 | 0.00 | 71 | 1009.7 |
| 20260508172102 | 58 | 242 | 8.0 | 9.0 | 0.00 | 0.00 | 0.00 | 68 | 1009.7 |
| 20260508171558 | 57 | 243 | 9.0 | 9.0 | 0.00 | 0.00 | 0.00 | 69 | 1010.1 |
| 20260508171055 | 57 | 265 | 9.0 | 10.0 | 0.00 | 0.00 | 0.00 | 71 | 1010.0 |
| 20260508170552 | 56 | 228 | 6.0 | 11.0 | 0.00 | 0.00 | 0.00 | 70 | 1010.4 |
| 20260508170049 | 57 | 243 | 11.0 | 13.0 | 0.00 | 0.00 | 0.00 | 68 | 1010.4 |
| 20260508165547 | 56 | 239 | 9.0 | 13.0 | 0.00 | 0.00 | 0.00 | 70 | 1010.4 |
| 20260508165043 | 55 | 221 | 6.0 | 7.0 | 0.00 | 0.00 | 0.00 | 73 | 1010.4 |
| 20260508164540 | 55 | 226 | 6.0 | 9.0 | 0.00 | 0.00 | 0.00 | 71 | 1010.5 |
| 20260508164037 | 55 | 232 | 10.0 | 14.0 | 0.00 | 0.00 | 0.00 | 71 | 1010.6 |
| 20260508163534 | 55 | 212 | 11.0 | 14.0 | 0.00 | 0.00 | 0.00 | 70 | 1010.8 |
| 20260508163031 | 55 | 233 | 5.0 | 9.0 | 0.00 | 0.00 | 0.00 | 71 | 1010.8 |
| 20260508162528 | 55 | 234 | 5.0 | 9.0 | 0.00 | 0.00 | 0.00 | 72 | 1010.8 |
| 20260508162025 | 55 | 268 | 8.0 | 9.0 | 0.00 | 0.00 | 0.00 | 70 | 1010.7 |
| 20260508161522 | 55 | 261 | 6.0 | 9.0 | 0.00 | 0.00 | 0.00 | 70 | 1010.8 |
| 20260508161019 | 55 | 254 | 9.0 | 11.0 | 0.00 | 0.00 | 0.00 | 69 | 1010.7 |
| 20260508160517 | 55 | 187 | 8.0 | 10.0 | 0.00 | 0.00 | 0.00 | 70 | 1010.8 |
| 20260508160014 | 55 | 225 | 9.0 | 14.0 | 0.00 | 0.00 | 0.00 | 69 | 1010.8 |
| 20260508155511 | 55 | 231 | 7.0 | 10.0 | 0.00 | 0.00 | 0.00 | 70 | 1010.6 |
| 20260508155008 | 55 | 182 | 7.0 | 13.0 | 0.00 | 0.00 | 0.00 | 69 | 1010.7 |
| 20260508154505 | 55 | 242 | 9.0 | 14.0 | 0.00 | 0.00 | 0.00 | 69 | 1010.6 |
| 20260508154002 | 55 | 241 | 4.0 | 9.0 | 0.00 | 0.00 | 0.00 | 69 | 1010.7 |
| 20260508153458 | 55 | 258 | 11.0 | 14.0 | 0.00 | 0.00 | 0.00 | 69 | 1010.8 |
| 20260508152955 | 55 | 244 | 7.0 | 10.0 | 0.00 | 0.00 | 0.00 | 68 | 1010.6 |
| 20260508152452 | 55 | 176 | 4.0 | 8.0 | 0.00 | 0.00 | 0.00 | 71 | 1010.7 |
| 20260508151948 | 55 | 251 | 4.0 | 8.0 | 0.00 | 0.00 | 0.00 | 69 | 1010.6 |
| 20260508151445 | 56 | 203 | 6.0 | 13.0 | 0.00 | 0.00 | 0.00 | 68 | 1010.7 |
| 20260508150941 | 55 | 269 | 8.0 | 13.0 | 0.00 | 0.00 | 0.00 | 68 | 1010.7 |
| 20260508150438 | 55 | 217 | 5.0 | 8.0 | 0.00 | 0.00 | 0.00 | 69 | 1010.4 |
| 20260508145933 | 55 | 240 | 10.0 | 13.0 | 0.00 | 0.00 | 0.00 | 67 | 1010.5 |
| 20260508145431 | 55 | 218 | 6.0 | 9.0 | 0.00 | 0.00 | 0.00 | 69 | 1010.7 |
| 20260508144927 | 55 | 249 | 10.0 | 13.0 | 0.00 | 0.00 | 0.00 | 68 | 1010.6 |
| 20260508144425 | 54 | 267 | 4.0 | 6.0 | 0.00 | 0.00 | 0.00 | 70 | 1010.6 |
| 20260508143922 | 54 | 268 | 5.0 | 10.0 | 0.00 | 0.00 | 0.00 | 70 | 1010.8 |
| 20260508143420 | 54 | 202 | 9.0 | 10.0 | 0.00 | 0.00 | 0.00 | 69 | 1010.6 |
| 20260508142916 | 54 | 234 | 5.0 | 8.0 | 0.00 | 0.00 | 0.00 | 69 | 1010.7 |
| 20260508142413 | 54 | 230 | 5.0 | 8.0 | 0.00 | 0.00 | 0.00 | 70 | 1010.8 |
| 20260508141909 | 54 | 242 | 6.0 | 11.0 | 0.00 | 0.00 | 0.00 | 69 | 1010.5 |
| 20260508141406 | 54 | 268 | 10.0 | 10.0 | 0.00 | 0.00 | 0.00 | 68 | 1010.7 |
| 20260508140904 | 54 | 251 | 5.0 | 8.0 | 0.00 | 0.00 | 0.00 | 70 | 1010.8 |
| 20260508140401 | 54 | 245 | 6.0 | 13.0 | 0.00 | 0.00 | 0.00 | 70 | 1010.8 |
| 20260508135856 | 54 | 256 | 4.0 | 13.0 | 0.00 | 0.00 | 0.00 | 69 | 1010.6 |
| 20260508135353 | 54 | 185 | 8.0 | 11.0 | 0.00 | 0.00 | 0.00 | 68 | 1010.9 |
| 20260508134849 | 54 | 250 | 10.0 | 10.0 | 0.00 | 0.00 | 0.00 | 69 | 1010.8 |
| 20260508134346 | 54 | 270 | 6.0 | 10.0 | 0.00 | 0.00 | 0.00 | 70 | 1010.8 |
| 20260508133842 | 53 | 268 | 6.0 | 7.0 | 0.00 | 0.00 | 0.00 | 71 | 1011.0 |
| 20260508133341 | 53 | 281 | 7.0 | 11.0 | 0.00 | 0.00 | 0.00 | 70 | 1010.7 |
| 20260508132837 | 53 | 243 | 9.0 | 15.0 | 0.00 | 0.00 | 0.00 | 70 | 1010.8 |
| 20260508132335 | 53 | 223 | 8.0 | 16.0 | 0.00 | 0.00 | 0.00 | 70 | 1010.8 |
| 20260508131832 | 52 | 246 | 12.0 | 15.0 | 0.00 | 0.00 | 0.00 | 71 | 1010.9 |
| 20260508131327 | 52 | 244 | 9.0 | 10.0 | 0.00 | 0.00 | 0.00 | 73 | 1010.7 |
| 20260508130824 | 51 | 271 | 7.0 | 9.0 | 0.00 | 0.00 | 0.00 | 73 | 1010.7 |
| 20260508130321 | 51 | 252 | 11.0 | 14.0 | 0.00 | 0.00 | 0.00 | 72 | 1010.9 |
| 20260508125817 | 50 | 269 | 8.0 | 11.0 | 0.00 | 0.00 | 0.00 | 74 | 1010.9 |
| 20260508125314 | 50 | 271 | 6.0 | 13.0 | 0.00 | 0.00 | 0.00 | 73 | 1011.0 |
| 20260508124812 | 50 | 276 | 9.0 | 10.0 | 0.00 | 0.00 | 0.00 | 73 | 1010.7 |
| 20260508124308 | 50 | 243 | 7.0 | 13.0 | 0.00 | 0.00 | 0.00 | 73 | 1011.0 |
| 20260508123807 | 51 | 243 | 10.0 | 16.0 | 0.00 | 0.00 | 0.00 | 71 | 1010.9 |
| 20260508123305 | 51 | 244 | 5.0 | 10.0 | 0.00 | 0.00 | 0.00 | 72 | 1011.3 |
| 20260508122800 | 50 | 237 | 9.0 | 13.0 | 0.00 | 0.00 | 0.00 | 71 | 1010.8 |
| 20260508122258 | 50 | 240 | 7.0 | 11.0 | 0.00 | 0.00 | 0.00 | 71 | 1011.2 |
| 20260508121755 | 50 | 241 | 9.0 | 10.0 | 0.00 | 0.00 | 0.00 | 71 | 1010.6 |
| 20260508121253 | 51 | 246 | 9.0 | 13.0 | 0.00 | 0.00 | 0.00 | 70 | 1010.6 |
| 20260508120750 | 51 | 245 | 10.0 | 13.0 | 0.00 | 0.00 | 0.00 | 71 | 1010.9 |
| 20260508120248 | 50 | 223 | 6.0 | 7.0 | 0.00 | 0.00 | 0.00 | 71 | 1010.8 |
| 20260508115745 | 50 | 227 | 7.0 | 10.0 | 0.00 | 0.00 | 0.00 | 71 | 1010.5 |
| 20260508115243 | 49 | 242 | 7.0 | 8.0 | 0.00 | 0.00 | 0.00 | 73 | 1010.5 |
| 20260508114739 | 49 | 235 | 5.0 | 7.0 | 0.00 | 0.00 | 0.00 | 73 | 1010.3 |
| 20260508114236 | 49 | 241 | 7.0 | 8.0 | 0.00 | 0.00 | 0.00 | 73 | 1010.5 |
| 20260508113732 | 49 | 221 | 6.0 | 10.0 | 0.00 | 0.00 | 0.00 | 73 | 1010.5 |
| 20260508113231 | 49 | 164 | 3.0 | 8.0 | 0.00 | 0.00 | 0.00 | 73 | 1010.1 |
| 20260508112727 | 49 | 215 | 6.0 | 8.0 | 0.00 | 0.00 | 0.00 | 73 | 1010.2 |
| 20260508112224 | 48 | 174 | 6.0 | 9.0 | 0.00 | 0.00 | 0.00 | 74 | 1010.2 |
| 20260508111720 | 48 | 214 | 6.0 | 8.0 | 0.00 | 0.00 | 0.00 | 75 | 1010.1 |
| 20260508111218 | 48 | 180 | 4.0 | 6.0 | 0.00 | 0.00 | 0.00 | 76 | 1009.9 |
| 20260508110715 | 48 | 206 | 3.0 | 6.0 | 0.00 | 0.00 | 0.00 | 76 | 1009.8 |
| 20260508110212 | 48 | 177 | 4.0 | 6.0 | 0.00 | 0.00 | 0.00 | 76 | 1009.9 |
| 20260508105712 | 48 | 186 | 4.0 | 7.0 | 0.00 | 0.00 | 0.00 | 75 | 1009.8 |
| 20260508105209 | 48 | 178 | 3.0 | 6.0 | 0.00 | 0.00 | 0.00 | 75 | 1010.1 |
| 20260508104707 | 48 | 171 | 3.0 | 6.0 | 0.00 | 0.00 | 0.00 | 74 | 1010.1 |
| 20260508104203 | 48 | 221 | 4.0 | 8.0 | 0.00 | 0.00 | 0.00 | 74 | 1010.1 |
| 20260508103700 | 48 | 192 | 3.0 | 4.0 | 0.00 | 0.00 | 0.00 | 74 | 1010.0 |
| 20260508103157 | 48 | 214 | 3.0 | 6.0 | 0.00 | 0.00 | 0.00 | 73 | 1010.0 |
| 20260508102655 | 49 | 225 | 5.0 | 6.0 | 0.00 | 0.00 | 0.00 | 72 | 1009.8 |
| 20260508102153 | 49 | 197 | 4.0 | 6.0 | 0.00 | 0.00 | 0.00 | 71 | 1009.9 |
| 20260508101649 | 49 | 192 | 4.0 | 6.0 | 0.00 | 0.00 | 0.00 | 71 | 1010.0 |
| 20260508101147 | 49 | 222 | 4.0 | 8.0 | 0.00 | 0.00 | 0.00 | 71 | 1009.9 |
| 20260508100644 | 49 | 236 | 5.0 | 8.0 | 0.00 | 0.00 | 0.00 | 71 | 1010.0 |
| 20260508100142 | 49 | 213 | 3.0 | 8.0 | 0.00 | 0.00 | 0.00 | 73 | 1009.9 |
| 20260508095639 | 49 | 232 | 5.0 | 8.0 | 0.00 | 0.00 | 0.00 | 73 | 1009.7 |
| 20260508095136 | 49 | 216 | 4.0 | 6.0 | 0.00 | 0.00 | 0.00 | 74 | 1009.8 |
| 20260508094632 | 49 | 221 | 6.0 | 8.0 | 0.00 | 0.00 | 0.00 | 74 | 1009.8 |
| 20260508094129 | 49 | 218 | 5.0 | 9.0 | 0.00 | 0.00 | 0.00 | 73 | 1009.9 |
| 20260508093627 | 49 | 254 | 9.0 | 15.0 | 0.00 | 0.00 | 0.00 | 72 | 1009.9 |
| 20260508093124 | 49 | 223 | 7.0 | 9.0 | 0.00 | 0.00 | 0.00 | 73 | 1009.8 |
| 20260508092621 | 49 | 202 | 9.0 | 14.0 | 0.00 | 0.00 | 0.00 | 74 | 1010.2 |
| 20260508092120 | 48 | 215 | 7.0 | 10.0 | 0.00 | 0.00 | 0.00 | 76 | 1010.1 |
| 20260508091616 | 48 | 203 | 4.0 | 6.0 | 0.00 | 0.00 | 0.00 | 77 | 1010.1 |
| 20260508091113 | 48 | 213 | 6.0 | 7.0 | 0.00 | 0.00 | 0.00 | 77 | 1010.2 |
| 20260508090612 | 48 | 212 | 3.0 | 6.0 | 0.00 | 0.00 | 0.00 | 77 | 1010.2 |
| 20260508090109 | 48 | 201 | 4.0 | 7.0 | 0.00 | 0.00 | 0.00 | 77 | 1010.1 |
| 20260508085605 | 48 | 234 | 4.0 | 6.0 | 0.00 | 0.00 | 0.00 | 78 | 1010.1 |
| 20260508085102 | 48 | 216 | 3.0 | 6.0 | 0.00 | 0.00 | 0.00 | 77 | 1010.1 |
| 20260508084558 | 48 | 159 | 5.0 | 7.0 | 0.00 | 0.00 | 0.00 | 77 | 1010.0 |
| 20260508084056 | 48 | 200 | 5.0 | 7.0 | 0.00 | 0.00 | 0.00 | 76 | 1010.0 |
| 20260508083553 | 48 | 208 | 8.0 | 8.0 | 0.00 | 0.00 | 0.00 | 77 | 1010.2 |
| 20260508083050 | 47 | 233 | 6.0 | 10.0 | 0.00 | 0.00 | 0.00 | 79 | 1009.9 |
| 20260508082546 | 47 | 199 | 5.0 | 6.0 | 0.00 | 0.00 | 0.00 | 81 | 1010.2 |
| 20260508082043 | 46 | 209 | 2.0 | 6.0 | 0.00 | 0.00 | 0.00 | 82 | 1010.1 |
| 20260508081541 | 46 | 219 | 3.0 | 4.0 | 0.00 | 0.00 | 0.00 | 82 | 1010.0 |
| 20260508081036 | 46 | 207 | 3.0 | 4.0 | 0.00 | 0.00 | 0.00 | 83 | 1010.3 |
| 20260508080534 | 46 | 161 | 1.0 | 4.0 | 0.00 | 0.00 | 0.00 | 83 | 1010.2 |
| 20260508080031 | 46 | 203 | 3.0 | 6.0 | 0.00 | 0.00 | 0.00 | 83 | 1010.2 |
| 20260508075528 | 46 | 176 | 3.0 | 6.0 | 0.00 | 0.00 | 0.00 | 83 | 1010.2 |
| 20260508075025 | 46 | 211 | 4.0 | 6.0 | 0.00 | 0.00 | 0.00 | 83 | 1010.2 |
| 20260508074523 | 46 | 200 | 4.0 | 6.0 | 0.00 | 0.00 | 0.00 | 83 | 1010.3 |
| 20260508074020 | 46 | 222 | 3.0 | 8.0 | 0.00 | 0.00 | 0.00 | 83 | 1010.3 |
| 20260508073517 | 46 | 221 | 3.0 | 6.0 | 0.00 | 0.00 | 0.00 | 83 | 1010.3 |
| 20260508073015 | 46 | 188 | 2.0 | 4.0 | 0.00 | 0.00 | 0.00 | 82 | 1010.2 |
| 20260508072510 | 46 | 205 | 4.0 | 7.0 | 0.00 | 0.00 | 0.00 | 83 | 1010.4 |
| 20260508072008 | 46 | 200 | 4.0 | 6.0 | 0.00 | 0.00 | 0.00 | 82 | 1010.3 |
| 20260508071505 | 46 | 202 | 3.0 | 3.0 | 0.00 | 0.00 | 0.00 | 82 | 1010.3 |
| 20260508071003 | 46 | 202 | 5.0 | 6.0 | 0.00 | 0.00 | 0.00 | 81 | 1010.7 |
| 20260508070500 | 46 | 209 | 4.0 | 8.0 | 0.00 | 0.00 | 0.00 | 81 | 1010.6 |
| 20260508065958 | 46 | 178 | 5.0 | 9.0 | 0.00 | 0.00 | 0.00 | 80 | 1010.5 |
| 20260508065456 | 47 | 219 | 7.0 | 8.0 | 0.00 | 0.00 | 0.00 | 79 | 1010.3 |
| 20260508064954 | 47 | 214 | 6.0 | 9.0 | 0.00 | 0.00 | 0.00 | 78 | 1010.5 |
| 20260508064451 | 47 | 233 | 4.0 | 4.0 | 0.00 | 0.00 | 0.00 | 77 | 1010.5 |
| 20260508063949 | 48 | 226 | 6.0 | 8.0 | 0.00 | 0.00 | 0.00 | 76 | 1010.6 |
| 20260508063446 | 48 | 244 | 5.0 | 7.0 | 0.00 | 0.00 | 0.00 | 75 | 1010.6 |
| 20260508062944 | 48 | 211 | 8.0 | 11.0 | 0.00 | 0.00 | 0.00 | 75 | 1010.6 |
| 20260508062441 | 48 | 211 | 11.0 | 15.0 | 0.00 | 0.00 | 0.00 | 74 | 1010.7 |
| 20260508061938 | 48 | 239 | 10.0 | 13.0 | 0.00 | 0.00 | 0.00 | 74 | 1010.5 |
| 20260508061436 | 48 | 239 | 4.0 | 13.0 | 0.00 | 0.00 | 0.00 | 73 | 1010.8 |
| 20260508060931 | 48 | 208 | 9.0 | 11.0 | 0.00 | 0.00 | 0.00 | 72 | 1010.6 |
| 20260508060429 | 49 | 212 | 9.0 | 16.0 | 0.00 | 0.00 | 0.00 | 71 | 1010.7 |
| 20260508055925 | 49 | 229 | 8.0 | 14.0 | 0.00 | 0.00 | 0.00 | 70 | 1010.6 |
| 20260508055422 | 49 | 239 | 6.0 | 10.0 | 0.00 | 0.00 | 0.00 | 70 | 1010.6 |
| 20260508054918 | 49 | 232 | 5.0 | 10.0 | 0.00 | 0.00 | 0.00 | 69 | 1010.8 |
| 20260508054416 | 49 | 230 | 8.0 | 10.0 | 0.00 | 0.00 | 0.00 | 68 | 1010.8 |
| 20260508053913 | 50 | 201 | 7.0 | 11.0 | 0.00 | 0.00 | 0.00 | 67 | 1010.8 |
| 20260508053410 | 50 | 239 | 6.0 | 9.0 | 0.00 | 0.00 | 0.00 | 66 | 1010.5 |
| 20260508052907 | 50 | 191 | 7.0 | 13.0 | 0.00 | 0.00 | 0.00 | 65 | 1010.6 |
| 20260508052405 | 50 | 232 | 9.0 | 15.0 | 0.00 | 0.00 | 0.00 | 65 | 1010.7 |
| 20260508051900 | 50 | 244 | 4.0 | 13.0 | 0.00 | 0.00 | 0.00 | 65 | 1010.8 |
| 20260508051356 | 49 | 186 | 5.0 | 10.0 | 0.00 | 0.00 | 0.00 | 66 | 1010.9 |
| 20260508050852 | 49 | 185 | 7.0 | 8.0 | 0.00 | 0.00 | 0.00 | 67 | 1011.2 |
| 20260508050350 | 49 | 190 | 9.0 | 9.0 | 0.00 | 0.00 | 0.00 | 66 | 1010.9 |
| 20260508045845 | 48 | 223 | 7.0 | 8.0 | 0.00 | 0.00 | 0.00 | 68 | 1010.8 |
| 20260508045344 | 48 | 222 | 4.0 | 9.0 | 0.00 | 0.00 | 0.00 | 70 | 1011.0 |
| 20260508044841 | 47 | 187 | 3.0 | 3.0 | 0.00 | 0.00 | 0.00 | 72 | 1011.0 |
| 20260508044337 | 47 | 167 | 2.0 | 3.0 | 0.00 | 0.00 | 0.00 | 72 | 1011.0 |
| 20260508043833 | 47 | 198 | 3.0 | 3.0 | 0.00 | 0.00 | 0.00 | 71 | 1011.0 |
| 20260508043331 | 48 | 188 | 2.0 | 2.0 | 0.00 | 0.00 | 0.00 | 71 | 1011.0 |
| 20260508042827 | 48 | 188 | 1.0 | 3.0 | 0.00 | 0.00 | 0.00 | 70 | 1011.0 |
| 20260508042325 | 48 | 193 | 2.0 | 4.0 | 0.00 | 0.00 | 0.00 | 70 | 1011.2 |
| 20260508041821 | 48 | 185 | 2.0 | 3.0 | 0.00 | 0.00 | 0.00 | 70 | 1010.9 |
| 20260508041318 | 48 | 177 | 2.0 | 3.0 | 0.00 | 0.00 | 0.00 | 69 | 1010.9 |
| 20260508040814 | 48 | 186 | 0.0 | 2.0 | 0.00 | 0.00 | 0.00 | 68 | 1011.0 |
| 20260508040312 | 48 | 160 | 1.0 | 3.0 | 0.00 | 0.00 | 0.00 | 68 | 1011.2 |
| 20260508035809 | 48 | 188 | 1.0 | 2.0 | 0.00 | 0.00 | 0.00 | 68 | 1011.2 |
| 20260508035307 | 48 | 194 | 2.0 | 4.0 | 0.00 | 0.00 | 0.00 | 67 | 1011.0 |
| 20260508034803 | 49 | 199 | 2.0 | 3.0 | 0.00 | 0.00 | 0.00 | 66 | 1011.3 |
| 20260508034300 | 49 | 199 | 2.0 | 3.0 | 0.00 | 0.00 | 0.00 | 66 | 1011.2 |
| 20260508033757 | 49 | 197 | 1.0 | 2.0 | 0.00 | 0.00 | 0.00 | 66 | 1011.2 |
| 20260508033255 | 49 | 208 | 2.0 | 6.0 | 0.00 | 0.00 | 0.00 | 65 | 1011.2 |
| 20260508032753 | 49 | 162 | 4.0 | 6.0 | 0.00 | 0.00 | 0.00 | 65 | 1011.2 |
| 20260508032250 | 49 | 198 | 2.0 | 4.0 | 0.00 | 0.00 | 0.00 | 64 | 1011.2 |
| 20260508031746 | 50 | 225 | 7.0 | 7.0 | 0.00 | 0.00 | 0.00 | 63 | 1011.4 |
| 20260508031243 | 50 | 222 | 6.0 | 8.0 | 0.00 | 0.00 | 0.00 | 63 | 1011.2 |
| 20260508030739 | 50 | 206 | 5.0 | 7.0 | 0.00 | 0.00 | 0.00 | 62 | 1011.3 |
| 20260508030237 | 50 | 218 | 2.0 | 6.0 | 0.00 | 0.00 | 0.00 | 62 | 1011.5 |
| 20260508025733 | 50 | 235 | 6.0 | 8.0 | 0.00 | 0.00 | 0.00 | 61 | 1011.6 |
| 20260508025230 | 50 | 185 | 4.0 | 6.0 | 0.00 | 0.00 | 0.00 | 61 | 1011.7 |
| 20260508024726 | 50 | 193 | 6.0 | 7.0 | 0.00 | 0.00 | 0.00 | 60 | 1011.6 |
| 20260508024223 | 50 | 205 | 3.0 | 8.0 | 0.00 | 0.00 | 0.00 | 60 | 1011.6 |
| 20260508023720 | 50 | 227 | 5.0 | 7.0 | 0.00 | 0.00 | 0.00 | 60 | 1011.6 |
| 20260508023218 | 50 | 204 | 6.0 | 9.0 | 0.00 | 0.00 | 0.00 | 59 | 1011.6 |
| 20260508022713 | 51 | 231 | 5.0 | 8.0 | 0.00 | 0.00 | 0.00 | 59 | 1011.6 |
| 20260508022210 | 51 | 221 | 9.0 | 10.0 | 0.00 | 0.00 | 0.00 | 57 | 1011.6 |
| 20260508021707 | 51 | 226 | 7.0 | 11.0 | 0.00 | 0.00 | 0.00 | 57 | 1011.5 |
| 20260508021202 | 51 | 207 | 6.0 | 13.0 | 0.00 | 0.00 | 0.00 | 56 | 1011.4 |
| 20260508020700 | 51 | 233 | 12.0 | 16.0 | 0.00 | 0.00 | 0.00 | 55 | 1011.5 |
| 20260508020157 | 52 | 212 | 11.0 | 16.0 | 0.00 | 0.00 | 0.00 | 53 | 1011.5 |
| 20260508015654 | 52 | 241 | 12.0 | 16.0 | 0.00 | 0.00 | 0.00 | 52 | 1011.5 |
| 20260508015151 | 52 | 246 | 9.0 | 11.0 | 0.00 | 0.00 | 0.00 | 52 | 1011.5 |
| 20260508014648 | 52 | 250 | 7.0 | 11.0 | 0.00 | 0.00 | 0.00 | 52 | 1011.5 |
| 20260508014143 | 52 | 254 | 7.0 | 14.0 | 0.00 | 0.00 | 0.00 | 51 | 1011.3 |
| 20260508013640 | 52 | 223 | 6.0 | 11.0 | 0.00 | 0.00 | 0.00 | 50 | 1011.4 |
| 20260508013137 | 53 | 252 | 9.0 | 10.0 | 0.00 | 0.00 | 0.00 | 49 | 1011.3 |
| 20260508012635 | 53 | 249 | 7.0 | 10.0 | 0.00 | 0.00 | 0.00 | 49 | 1010.9 |
| 20260508012132 | 53 | 233 | 6.0 | 10.0 | 0.00 | 0.00 | 0.00 | 48 | 1010.9 |
| 20260508011630 | 53 | 232 | 10.0 | 14.0 | 0.00 | 0.00 | 0.00 | 47 | 1010.9 |
| 20260508011127 | 53 | 254 | 8.0 | 10.0 | 0.00 | 0.00 | 0.00 | 47 | 1010.8 |
| 20260508010623 | 54 | 213 | 9.0 | 14.0 | 0.00 | 0.00 | 0.00 | 45 | 1010.7 |
| 20260508010122 | 53 | 229 | 10.0 | 11.0 | 0.00 | 0.00 | 0.00 | 45 | 1010.7 |
| 20260508005618 | 53 | 252 | 4.0 | 7.0 | 0.00 | 0.00 | 0.00 | 47 | 1010.7 |
| 20260508005114 | 52 | 230 | 4.0 | 4.0 | 0.00 | 0.00 | 0.00 | 53 | 1010.7 |
| 20260508004610 | 52 | 176 | 2.0 | 2.0 | 0.00 | 0.00 | 0.00 | 60 | 1010.6 |
| 20260508004108 | 52 | 307 | 2.0 | 2.0 | 0.00 | 0.00 | 0.00 | 59 | 1010.7 |
| 20260508003604 | 51 | 307 | 2.0 | 2.0 | 0.00 | 0.00 | 0.00 | 60 | 1010.8 |
| 20260508003101 | 51 | 307 | 1.0 | 1.0 | 0.00 | 0.00 | 0.00 | 60 | 1010.5 |
| 20260508002557 | 51 | 308 | 0.0 | 0.0 | 0.00 | 0.00 | 0.00 | 54 | 1010.5 |
| 20260508002055 | 51 | 308 | 0.0 | 1.0 | 0.00 | 0.00 | 0.00 | 56 | 1010.4 |
| 20260508001550 | 51 | 308 | 1.0 | 1.0 | 0.00 | 0.00 | 0.00 | 56 | 1010.6 |
| 20260508001047 | 51 | 308 | 1.0 | 1.0 | 0.00 | 0.00 | 0.00 | 54 | 1010.2 |
| 20260508000543 | 52 | 308 | 0.0 | 0.0 | 0.00 | 0.00 | 0.00 | 53 | 1010.3 |
| 20260508000040 | 53 | 308 | 0.0 | 0.0 | 0.00 | 0.00 | 0.00 | 52 | 1010.4 |
| 20260507235537 | 53 | 308 | 0.0 | 0.0 | 0.00 | 0.00 | 0.00 | 51 | 1010.4 |
| 20260507235034 | 54 | 308 | 1.0 | 1.0 | 0.00 | 0.00 | 0.00 | 49 | 1010.4 |
| 20260507234531 | 55 | 308 | 0.0 | 0.0 | 0.00 | 0.00 | 0.00 | 47 | 1010.3 |
| 20260507234027 | 55 | 307 | 0.0 | 0.0 | 0.00 | 0.00 | 0.00 | 45 | 1010.3 |
| 20260507233524 | 56 | 308 | 1.0 | 1.0 | 0.00 | 0.00 | 0.00 | 42 | 1010.4 |
| 20260507233023 | 57 | 308 | 2.0 | 2.0 | 0.00 | 0.00 | 0.00 | 41 | 1010.6 |
| 20260507232518 | 56 | 308 | 0.0 | 0.0 | 0.00 | 0.00 | 0.00 | 45 | 1010.3 |
| 20260507232016 | 55 | 328 | 2.0 | 2.0 | 0.00 | 0.00 | 0.00 | 45 | 1010.5 |
| 20260507231512 | 55 | 337 | 0.0 | 0.0 | 0.00 | 0.00 | 0.00 | 44 | 1010.5 |
| 20260507231010 | 55 | 337 | 2.0 | 3.0 | 0.00 | 0.00 | 0.00 | 44 | 1010.3 |
| 20260507230507 | 55 | 351 | 3.0 | 3.0 | 0.00 | 0.00 | 0.00 | 44 | 1010.5 |
| 20260507230002 | 55 | 339 | 3.0 | 6.0 | 0.00 | 0.00 | 0.00 | 43 | 1010.5 |
| 20260507225458 | 56 | 329 | 3.0 | 4.0 | 0.00 | 0.00 | 0.00 | 42 | 1010.4 |
| 20260507224954 | 56 | 321 | 4.0 | 9.0 | 0.00 | 0.00 | 0.00 | 41 | 1010.8 |
| 20260507224450 | 56 | 326 | 5.0 | 7.0 | 0.00 | 0.00 | 0.00 | 40 | 1010.8 |
| 20260507223947 | 57 | 297 | 4.0 | 8.0 | 0.00 | 0.00 | 0.00 | 38 | 1010.7 |
| 20260507223443 | 57 | 309 | 6.0 | 7.0 | 0.00 | 0.00 | 0.00 | 37 | 1010.5 |
| 20260507222940 | 57 | 303 | 4.0 | 9.0 | 0.00 | 0.00 | 0.00 | 38 | 1010.5 |
| 20260507222437 | 57 | 325 | 5.0 | 8.0 | 0.00 | 0.00 | 0.00 | 39 | 1010.5 |
| 20260507221934 | 57 | 261 | 2.0 | 4.0 | 0.00 | 0.00 | 0.00 | 40 | 1010.7 |
| 20260507221430 | 57 | 323 | 6.0 | 8.0 | 0.00 | 0.00 | 0.00 | 38 | 1010.8 |
| 20260507220926 | 57 | 304 | 4.0 | 10.0 | 0.00 | 0.00 | 0.00 | 40 | 1010.7 |
| 20260507220424 | 56 | 286 | 3.0 | 10.0 | 0.00 | 0.00 | 0.00 | 41 | 1010.7 |
| 20260507215921 | 56 | 280 | 7.0 | 9.0 | 0.00 | 0.00 | 0.00 | 38 | 1010.6 |
| 20260507215418 | 56 | 293 | 7.0 | 8.0 | 0.00 | 0.00 | 0.00 | 36 | 1010.4 |
| 20260507214915 | 55 | 260 | 5.0 | 7.0 | 0.00 | 0.00 | 0.00 | 37 | 1010.3 |
| 20260507214413 | 55 | 264 | 3.0 | 7.0 | 0.00 | 0.00 | 0.00 | 39 | 1010.5 |
| 20260507213908 | 56 | 284 | 6.0 | 14.0 | 0.00 | 0.00 | 0.00 | 37 | 1010.5 |
| 20260507213404 | 57 | 261 | 4.0 | 9.0 | 0.00 | 0.00 | 0.00 | 38 | 1010.5 |
| 20260507212901 | 56 | 315 | 5.0 | 10.0 | 0.00 | 0.00 | 0.00 | 37 | 1010.4 |
| 20260507212357 | 57 | 302 | 9.0 | 14.0 | 0.00 | 0.00 | 0.00 | 36 | 1010.4 |
| 20260507211854 | 57 | 301 | 9.0 | 13.0 | 0.00 | 0.00 | 0.00 | 35 | 1010.3 |
| 20260507211350 | 55 | 295 | 6.0 | 8.0 | 0.00 | 0.00 | 0.00 | 37 | 1010.5 |
| 20260507210848 | 55 | 234 | 4.0 | 14.0 | 0.00 | 0.00 | 0.00 | 39 | 1010.7 |
| 20260507210344 | 56 | 279 | 11.0 | 17.0 | 0.00 | 0.00 | 0.00 | 36 | 1010.4 |
| 20260507205841 | 56 | 272 | 6.0 | 9.0 | 0.00 | 0.00 | 0.00 | 37 | 1010.4 |
| 20260507205338 | 57 | 295 | 9.0 | 9.0 | 0.00 | 0.00 | 0.00 | 35 | 1010.5 |
| 20260507204834 | 57 | 293 | 8.0 | 11.0 | 0.00 | 0.00 | 0.00 | 38 | 1010.5 |
| 20260507204331 | 56 | 279 | 4.0 | 11.0 | 0.00 | 0.00 | 0.00 | 42 | 1010.5 |
| 20260507203829 | 56 | 270 | 4.0 | 6.0 | 0.00 | 0.00 | 0.00 | 42 | 1010.3 |
| 20260507203327 | 56 | 310 | 5.0 | 9.0 | 0.00 | 0.00 | 0.00 | 43 | 1010.4 |
| 20260507202823 | 55 | 268 | 11.0 | 13.0 | 0.00 | 0.00 | 0.00 | 37 | 1010.4 |
| 20260507202319 | 56 | 269 | 12.0 | 18.0 | 0.00 | 0.00 | 0.00 | 37 | 1010.6 |
| 20260507201815 | 57 | 326 | 7.0 | 11.0 | 0.00 | 0.00 | 0.00 | 38 | 1010.5 |
| 20260507201311 | 57 | 295 | 5.0 | 7.0 | 0.00 | 0.00 | 0.00 | 36 | 1010.5 |
| 20260507200807 | 58 | 261 | 10.0 | 13.0 | 0.00 | 0.00 | 0.00 | 35 | 1010.5 |
| 20260507200303 | 57 | 273 | 1.0 | 4.0 | 0.00 | 0.00 | 0.00 | 39 | 1010.4 |
| 20260507195759 | 57 | 249 | 8.0 | 9.0 | 0.00 | 0.00 | 0.00 | 37 | 1010.6 |
| 20260507195257 | 57 | 284 | 6.0 | 13.0 | 0.00 | 0.00 | 0.00 | 38 | 1010.5 |
| 20260507194754 | 57 | 272 | 9.0 | 11.0 | 0.00 | 0.00 | 0.00 | 38 | 1010.3 |
| 20260507194250 | 57 | 277 | 3.0 | 14.0 | 0.00 | 0.00 | 0.00 | 40 | 1010.5 |
| 20260507193747 | 58 | 303 | 7.0 | 11.0 | 0.00 | 0.00 | 0.00 | 38 | 1010.6 |
| 20260507193243 | 56 | 277 | 7.0 | 11.0 | 0.00 | 0.00 | 0.00 | 40 | 1010.7 |
| 20260507192740 | 57 | 246 | 14.0 | 17.0 | 0.00 | 0.00 | 0.00 | 37 | 1010.7 |
| 20260507192236 | 57 | 243 | 8.0 | 17.0 | 0.00 | 0.00 | 0.00 | 37 | 1010.7 |
| 20260507191732 | 55 | 257 | 8.0 | 11.0 | 0.00 | 0.00 | 0.00 | 42 | 1010.9 |
| 20260507191230 | 55 | 254 | 8.0 | 10.0 | 0.00 | 0.00 | 0.00 | 39 | 1010.7 |
| 20260507190726 | 55 | 282 | 9.0 | 13.0 | 0.00 | 0.00 | 0.00 | 41 | 1010.6 |
| 20260507190225 | 56 | 276 | 11.0 | 17.0 | 0.00 | 0.00 | 0.00 | 39 | 1010.8 |
| 20260507185723 | 55 | 279 | 8.0 | 14.0 | 0.00 | 0.00 | 0.00 | 41 | 1010.8 |
| 20260507185220 | 56 | 292 | 12.0 | 21.0 | 0.00 | 0.00 | 0.00 | 38 | 1011.0 |
| 20260507184717 | 56 | 258 | 7.0 | 11.0 | 0.00 | 0.00 | 0.00 | 42 | 1010.8 |
| 20260507184215 | 54 | 247 | 6.0 | 9.0 | 0.00 | 0.00 | 0.00 | 43 | 1011.0 |
| 20260507183711 | 54 | 256 | 5.0 | 11.0 | 0.00 | 0.00 | 0.00 | 44 | 1011.0 |
| 20260507183208 | 56 | 252 | 7.0 | 10.0 | 0.00 | 0.00 | 0.00 | 45 | 1011.0 |
| 20260507182706 | 56 | 252 | 8.0 | 14.0 | 0.00 | 0.00 | 0.00 | 43 | 1011.0 |
| 20260507182201 | 56 | 241 | 5.0 | 15.0 | 0.00 | 0.00 | 0.00 | 43 | 1011.2 |
| 20260507181657 | 56 | 265 | 9.0 | 17.0 | 0.00 | 0.00 | 0.00 | 45 | 1010.8 |
| 20260507181154 | 56 | 267 | 8.0 | 13.0 | 0.00 | 0.00 | 0.00 | 46 | 1010.7 |
| 20260507180650 | 56 | 284 | 15.0 | 18.0 | 0.00 | 0.00 | 0.00 | 44 | 1010.9 |
| 20260507180148 | 54 | 240 | 8.0 | 17.0 | 0.00 | 0.00 | 0.00 | 46 | 1010.9 |
| 20260507175643 | 54 | 257 | 5.0 | 14.0 | 0.00 | 0.00 | 0.00 | 46 | 1010.9 |